This is the latest recevied weather packets stored in our database for station/object HB9EYW-6. If no packets are shown the sender has not sent any weather packets the latest 10 day(s).
| Time | Temp. | Humidity | Pressure | Rain* | Wind** | Luminosity | Snow |
|---|---|---|---|---|---|---|---|
| 1778179504 | 15° C | 47% | 0 hPa | 0 mm | - | - | - |
| 1778179204 | 15° C | 46% | 0 hPa | 0 mm | - | - | - |
| 1778178904 | 15.56° C | 45% | 0 hPa | 0 mm | - | - | - |
| 1778178604 | 15.56° C | 44% | 0 hPa | 0 mm | - | - | - |
| 1778178304 | 16.11° C | 43% | 0 hPa | 0 mm | - | - | - |
| 1778178004 | 16.11° C | 42% | 0 hPa | 0 mm | - | - | - |
| 1778177704 | 16.67° C | 41% | 0 hPa | 0 mm | - | - | - |
| 1778177404 | 16.67° C | 41% | 0 hPa | 0 mm | - | - | - |
| 1778177104 | 16.67° C | 42% | 0 hPa | 0 mm | - | - | - |
| 1778176804 | 16.67° C | 42% | 0 hPa | 0 mm | - | - | - |
| 1778176504 | 16.67° C | 42% | 0 hPa | 0 mm | - | - | - |
| 1778176204 | 16.67° C | 40% | 0 hPa | 0 mm | - | - | - |
| 1778175904 | 16.67° C | 39% | 0 hPa | 0 mm | - | - | - |
| 1778175604 | 17.22° C | 37% | 0 hPa | 0 mm | - | - | - |
| 1778175304 | 17.78° C | 35% | 0 hPa | 0 mm | - | - | - |
| 1778175004 | 18.33° C | 35% | 0 hPa | 0 mm | - | - | - |
| 1778174704 | 18.33° C | 38% | 0 hPa | 0 mm | - | - | - |
| 1778174404 | 17.78° C | 40% | 0 hPa | 0 mm | - | - | - |
| 1778174104 | 17.22° C | 40% | 0 hPa | 0 mm | - | - | - |
| 1778173804 | 16.67° C | 39% | 0 hPa | 0 mm | - | - | - |
| 1778173504 | 17.22° C | 38% | 0 hPa | 0 mm | - | - | - |
| 1778173204 | 17.22° C | 38% | 0 hPa | 0 mm | - | - | - |
| 1778172904 | 17.22° C | 39% | 0 hPa | 0 mm | - | - | - |
| 1778172604 | 17.22° C | 38% | 0 hPa | 0 mm | - | - | - |
| 1778172304 | 17.78° C | 37% | 0 hPa | 0 mm | - | - | - |
* Rain latest hour (hover to see other rain measurements)
** Current wind speed in m/s (hover to see current wind gust speed)